This is the latest recevied weather packets stored in our database for station/object IV3CGM-13. If no packets are shown the sender has not sent any weather packets the latest 10 day(s).
| Time | Temp. | Humidity | Pressure | Rain* | Wind** | Luminosity | Snow |
|---|---|---|---|---|---|---|---|
| 1788474807 | 23.33° C | 63% | 1019.2 hPa | 0 mm | - | 0 W/m² | - |
| 1788474119 | 23.89° C | 59% | 1019.3 hPa | 0 mm | - | 0 W/m² | - |
| 1788473383 | 23.33° C | 60% | 1019.2 hPa | 0 mm | - | 0 W/m² | - |
| 1788472669 | 23.89° C | 60% | 1019.1 hPa | 0 mm | - | 0 W/m² | - |
| 1788471982 | 23.89° C | 59% | 1019.1 hPa | 0 mm | - | 0 W/m² | - |
| 1788471294 | 23.89° C | 59% | 1019.2 hPa | 0 mm | - | 0 W/m² | - |
| 1788470607 | 23.89° C | 59% | 1019.3 hPa | 0 mm | - | 0 W/m² | - |
| 1788469870 | 23.89° C | 60% | 1019.1 hPa | 0 mm | - | 0 W/m² | - |
| 1788469169 | 23.33° C | 60% | 1018.9 hPa | 0 mm | - | 0 W/m² | - |
| 1788468482 | 23.33° C | 63% | 1018.9 hPa | 0 mm | - | 0 W/m² | - |
| 1788467794 | 23.33° C | 64% | 1018.9 hPa | 0 mm | - | 0 W/m² | - |
| 1788467107 | 22.22° C | 67% | 1018.9 hPa | 0 mm | - | 0 W/m² | - |
| 1788466370 | 22.78° C | 67% | 1018.9 hPa | 0 mm | - | 0 W/m² | - |
| 1788465669 | 22.78° C | 68% | 1018.8 hPa | 0 mm | - | 0 W/m² | - |
| 1788464982 | 23.33° C | 62% | 1018.7 hPa | 0 mm | - | 0 W/m² | - |
| 1788464295 | 23.89° C | 63% | 1018.7 hPa | 0 mm | - | 0 W/m² | - |
| 1788463607 | 23.89° C | 62% | 1018.6 hPa | 0 mm | - | 0 W/m² | - |
| 1788462870 | 24.44° C | 58% | 1018.7 hPa | 0 mm | - | 0 W/m² | - |
| 1788462170 | 23.89° C | 61% | 1018.8 hPa | 0 mm | - | 0 W/m² | - |
| 1788461482 | 23.89° C | 60% | 1018.6 hPa | 0 mm | - | 0 W/m² | - |
| 1788460795 | 23.33° C | 62% | 1018.5 hPa | 0 mm | - | 0 W/m² | - |
| 1788460107 | 22.22° C | 70% | 1018.4 hPa | 0 mm | - | 0 W/m² | - |
| 1788459390 | 22.22° C | 70% | 1018.3 hPa | 0 mm | - | 0 W/m² | - |
| 1788458670 | 22.22° C | 70% | 1018.2 hPa | 0 mm | - | 0 W/m² | - |
| 1788457983 | 22.78° C | 66% | 1018.2 hPa | 0 mm | - | 1 W/m² | - |
* Rain latest hour (hover to see other rain measurements)
** Current wind speed in m/s (hover to see current wind gust speed)